Regional Weather Roundup
Issued by NWS

Home | Current Version | Previous Version | Text Only | Print | Product List | Glossary On
Versions: 1 2 3 4 5 6 7 8 9 10 11 12 13 14 15 16 17 18 19 20 21 22 23 24 25 26 27 28 29 30 31 32 33 34 35 36 37 38 39 40 41 42 43 44 45 46 47 48 49
000
ASUS44 KBMX 230410
RWRAL

ALABAMA REGIONAL WEATHER ROUNDUP
NATIONAL WEATHER SERVICE BIRMINGHAM AL
1100 PM CDT MON SEP 22 2014

NOTE: "FAIR" INDICATES FEW OR NO CLOUDS BELOW 12,000 FEET
WITH NO SIGNIFICANT WEATHER AND/OR OBSTRUCTIONS TO VISIBILITY.

THE REMARK "TC" DENOTES TEMPERATURE IN DEGREES CELSIUS.

ALZ001>011-014-016>018-020-230500-
NORTH ALABAMA

CITY           SKY/WX    TMP DP  RH WIND       PRES   REMARKS
MUSCLE SHOALS  CLEAR     64  47  53 NE5       30.20R
HUNTSVILLE     CLEAR     61  45  55 NE12      30.17S
DECATUR        CLEAR     58  46  64 NE3       30.19R
HALEYVILLE     FAIR      58  48  69 N5        30.19S
GADSDEN        CLEAR     61  46  59 N7        30.15S
$$

ALZ012-013-022-023-030>036-040>044-230500-
WEST CENTRAL ALABAMA

CITY           SKY/WX    TMP DP  RH WIND       PRES   REMARKS
TUSCALOOSA     CLEAR     63  52  67 N8        30.13R
$$

ALZ015-024>027-033>036-040>044-230500-
CENTRAL ALABAMA

CITY           SKY/WX    TMP DP  RH WIND       PRES   REMARKS
BIRMINGHAM     CLEAR     63  49  60 N3        30.16R
MONTGOMERY     CLEAR     67  54  63 N6        30.09R
SHELBY CO ARPT CLEAR     67  50  54 N3        30.13S
MAXWELL AFB    CLEAR     65  55  69 NE3       30.09R
GREENVILLE     FAIR      66  53  63 N6        30.08S
$$

ALZ019-021-028-029-037-038-045>048-230500-
EAST CENTRAL ALABAMA

CITY           SKY/WX    TMP DP  RH WIND       PRES   REMARKS
ANNISTON       CLEAR     63  52  67 VRB3      30.14R
ALEXANDER CITY CLEAR     66  56  70 CALM      30.11F
AUBURN         CLEAR     61  48  63 N8        30.13S
$$

ALZ051>064-230500-
SOUTHWEST ALABAMA

CITY           SKY/WX    TMP DP  RH WIND       PRES   REMARKS
MOBILE         CLEAR     67  56  67 N6        30.06S
BROOKLEY FIELD CLEAR     70  60  70 N8        30.06S
EVERGREEN      CLEAR     65  56  72 CALM      30.07S
$$

ALZ049-050-065>069-230500-
SOUTHEAST ALABAMA

CITY           SKY/WX    TMP DP  RH WIND       PRES   REMARKS
DOTHAN         CLEAR     63  62  97 NE5       30.09S
OZARK          CLEAR     65  63  91 N7        30.05S
TROY           CLEAR     61  58  90 N3        30.09R
EUFAULA        FAIR      63  61  93 N3        30.06F
$$


USA.gov is the U.S. government's official web portal to all federal, state and local government web resources and services.